This demonstration page uses our WeatherBlox Daily Observations layout. Learn more.

39.29038, -76.61219

Hourly Observations for January 25, 2021

Temp ( °F °C ) Dew Point ( °F °C ) Humidity (%) Winds ( mph kmh ) Pressure ( in mb ) Visibility ( mi km ) Precip ( " mm )
12:54 am 00:54 Cloudy 35 1.7 15 -9.4 44 44 Calm 30.14 1021 10 16.0934 0 0
1:54 am 01:54 Cloudy 34 1.1 15 -9.4 46 46 Calm 30.13 1020 10 16.0934 0 0
2:54 am 02:54 Cloudy 34 1.1 16 -8.9 48 48 Calm 30.14 1021 10 16.0934 0 0
3:54 am 03:54 Cloudy 34 1.1 18 -7.8 52 52 Calm 30.13 1020 10 16.0934 0 0
4:54 am 04:54 Cloudy 34 1.1 19 -7.2 54 54 E 3 6 30.11 1020 10 16.0934 0 0
5:54 am 05:54 Cloudy 35 1.7 19 -7.2 52 52 NE 7 11 30.12 1020 10 16.0934 0 0
6:54 am 06:54 Cloudy 35 1.7 17 -8.3 48 48 E 7 11 30.14 1021 10 16.0934 0 0
7:54 am 07:54 Cloudy 35 1.7 16 -8.9 46 46 ENE 7 11 30.14 1021 10 16.0934 0 0
8:54 am 08:54 Cloudy 35 1.7 16 -8.9 46 46 E 8 13 30.14 1021 10 16.0934 0 0
9:54 am 09:54 Cloudy 35 1.7 14 -10 42 42 E 10 17 30.12 1020 10 16.0934 0 0
10:54 am 10:54 Cloudy 35 1.7 16 -8.9 46 46 ENE 8 13 30.17 1022 10 16.0934 0 0
11:54 am 11:54 Cloudy with Light Snow 35 1.7 16 -8.9 46 46 E 5 7 30.14 1021 10 16.0934 0.001 0.001
12:04 pm 12:04 Cloudy 36 2.2 17 -8.3 46 46 ESE 5 7 30.14 1021 9 14.48406 0.001 0.001
12:35 pm 12:35 Cloudy 36 2.2 16 -8.9 44 44 E 3 6 30.14 1021 10 16.0934 0.001 0.001
12:54 pm 12:54 Cloudy 36 2.2 16 -8.9 44 44 E 6 9 30.11 1020 10 16.0934 0.001 0.001
1:03 pm 13:03 Cloudy 36 2.2 16 -8.9 44 44 E 6 9 30.11 1020 10 16.0934 0 0
1:54 pm 13:54 Cloudy 36 2.2 17 -8.3 46 46 E 5 7 30.09 1019 10 16.0934 0 0
2:54 pm 14:54 Cloudy 36 2.2 17 -8.3 46 46 ENE 5 7 30.09 1019 10 16.0934 0 0
3:54 pm 15:54 Cloudy 36 2.2 16 -8.9 44 44 ENE 8 13 30.07 1018 10 16.0934 0 0
4:54 pm 16:54 Cloudy 36 2.2 16 -8.9 44 44 ENE 8 13 30.06 1018 10 16.0934 0 0
5:54 pm 17:54 Cloudy 36 2.2 16 -8.9 44 44 E 7 11 30.05 1018 10 16.0934 0 0
6:54 pm 18:54 Cloudy with Light Snow 34 1.1 21 -6.1 59 59 ESE 5 7 30.09 1019 7 11.26538 0.001 0.001
7:08 pm 19:08 Cloudy with Light Snow 33 0.6 22 -5.6 64 64 VRB 5 7 30.1 1019 2.5 4.02335 0.001 0.001
7:19 pm 19:19 Cloudy with Light Snow 32 0 25 -3.9 75 75 SE 5 7 30.12 1020 1.25 2.011675 0.001 0.001
7:54 pm 19:54 Cloudy with Light Snow 31 -0.6 27 -2.8 85 85 ESE 5 7 30.09 1019 1.25 2.011675 0.03 0.762
8:04 pm 20:04 Cloudy with Light Snow 31 -0.6 28 -2.2 89 89 E 3 6 30.1 1019 1.25 2.011675 0.001 0.001
8:38 pm 20:38 Cloudy with Light Snow 31 -0.6 28 -2.2 89 89 E 7 11 30.06 1018 2 3.21868 0.02 0.508
8:54 pm 20:54 Cloudy with Light Snow 30 -1.1 27 -2.8 88 88 NE 6 9 30.08 1019 3 4.82802 0.02 0.508
9:29 pm 21:29 Cloudy with Light Snow 31 -0.6 28 -2.2 89 89 NE 8 13 30.09 1019 5 8.0467 0.001 0.001
9:40 pm 21:40 Cloudy with Light Snow 31 -0.6 28 -2.2 89 89 NE 8 13 30.08 1019 2.5 4.02335 0.01 0.254
9:45 pm 21:45 Cloudy with Light Snow 31 -0.6 28 -2.2 89 89 NE 8 13 30.09 1019 1.75 2.816345 0.01 0.254
9:54 pm 21:54 Cloudy with Light Snow 31 -0.6 28 -2.2 89 89 NE 7 11 30.08 1019 1.5 2.41401 0.02 0.508
11:45 pm 23:45 Cloudy with Light Snow 31 -0.6 28 -2.2 89 89 ENE 8 13 30.06 1018 3 4.82802 0.01 0.254
11:54 pm 23:54 Cloudy with Light Snow 31 -0.6 28 -2.2 89 89 ENE 9 15 30.05 1018 4 6.43736 0.01 0.254

Powered by AerisWeather